When you browse on this site, cookies collect data to enhance your experience and personalize the content and advertising you see.
Visit our Privacy Policy to learn more. By continuing to use the site, you agree to this use of cookies and data.

Tiempo cada hora Lota

Hoy, 7 Agosto, Viernes

Tiempo Temperatura Precipitaciones Viento Presión Humedad
00:00 +5°C° 0 mm 2 mps 765 mmHg 81%
01:00 +5°C° 0 mm 2 mps 765 mmHg 79%
02:00 +5°C° 0 mm 2 mps 765 mmHg 77%
03:00 +4°C° 0 mm 2 mps 764 mmHg 76%
04:00 +4°C° 0 mm 2 mps 764 mmHg 74%
05:00 +4°C° 0 mm 2 mps 764 mmHg 73%
06:00 +4°C° 0 mm 2 mps 764 mmHg 72%
07:00 +5°C° 0 mm 1 mps 764 mmHg 71%
08:00 +7°C° 0 mm 2 mps 764 mmHg 65%
09:00 +9°C° 0 mm 2 mps 764 mmHg 58%
10:00 +13°C° 0 mm 2 mps 764 mmHg 52%
11:00 +14°C° 0 mm 2 mps 764 mmHg 52%
12:00 +15°C° 0 mm 2 mps 763 mmHg 51%
13:00 +17°C° 0 mm 2 mps 763 mmHg 51%
14:00 +16°C° 0 mm 2 mps 763 mmHg 57%
15:00 +15°C° 0 mm 2 mps 762 mmHg 63%
16:00 +15°C° 0 mm 2 mps 762 mmHg 70%
17:00 +12°C° 0 mm 3 mps 763 mmHg 77%
18:00 +10°C° 0 mm 3 mps 763 mmHg 85%
19:00 +8°C° 0 mm 3 mps 763 mmHg 92%
20:00 +8°C° 0 mm 3 mps 763 mmHg 93%
21:00 +7°C° 0 mm 2 mps 763 mmHg 93%
22:00 +7°C° 0 mm 2 mps 763 mmHg 93%
23:00 +8°C° 0 mm 1 mps 763 mmHg 93%

Mañana, 8 Agosto, Sábado

Tiempo Temperatura Precipitaciones Viento Presión Humedad
00:00 +8°C° 0 mm 1 mps 764 mmHg 92%
01:00 +8°C° 0 mm 1 mps 764 mmHg 91%
02:00 +8°C° 0 mm 1 mps 764 mmHg 92%
03:00 +8°C° 0 mm 1 mps 763 mmHg 92%
04:00 +8°C° 0 mm 1 mps 763 mmHg 93%
05:00 +7°C° 0 mm 1 mps 763 mmHg 93%
06:00 +7°C° 0 mm 1 mps 764 mmHg 93%
07:00 +6°C° 0 mm 0 mps 764 mmHg 93%
08:00 +9°C° 0 mm 1 mps 764 mmHg 83%
09:00 +12°C° 0 mm 1 mps 763 mmHg 73%
10:00 +14°C° 0 mm 1 mps 763 mmHg 63%
11:00 +15°C° 0 mm 1 mps 763 mmHg 62%
12:00 +15°C° 0 mm 1 mps 763 mmHg 61%
13:00 +16°C° 0 mm 2 mps 763 mmHg 60%
14:00 +15°C° 0 mm 1 mps 762 mmHg 65%
15:00 +14°C° 0 mm 1 mps 762 mmHg 71%
16:00 +13°C° 0 mm 1 mps 762 mmHg 76%
17:00 +12°C° 0 mm 1 mps 762 mmHg 83%
18:00 +11°C° 0 mm 1 mps 762 mmHg 90%
19:00 +9°C° 0 mm 1 mps 762 mmHg 97%
20:00 +9°C° 0 mm 2 mps 762 mmHg 96%
21:00 +9°C° 0 mm 2 mps 762 mmHg 95%
22:00 +10°C° 0 mm 3 mps 761 mmHg 95%
23:00 +10°C° 0.1 mm 3 mps 761 mmHg 95%

Pasado mañana, 9 Agosto, Domingo

Tiempo Temperatura Precipitaciones Viento Presión Humedad
00:00 +10°C° 0.1 mm 4 mps 761 mmHg 95%
01:00 +10°C° 0.1 mm 4 mps 761 mmHg 95%
02:00 +10°C° 0.8 mm 4 mps 761 mmHg 96%
03:00 +10°C° 0.8 mm 4 mps 761 mmHg 97%
04:00 +10°C° 0.8 mm 4 mps 761 mmHg 98%
05:00 +10°C° 0.5 mm 4 mps 761 mmHg 98%
06:00 +11°C° 0.5 mm 3 mps 761 mmHg 98%
07:00 +12°C° 0.5 mm 2 mps 762 mmHg 98%
08:00 +11°C° 0.5 mm 3 mps 762 mmHg 96%
09:00 +12°C° 0.5 mm 3 mps 762 mmHg 95%
10:00 +13°C° 0.5 mm 3 mps 763 mmHg 93%
11:00 +13°C° 0.2 mm 4 mps 763 mmHg 89%
12:00 +13°C° 0.2 mm 4 mps 763 mmHg 86%
13:00 +13°C° 0.2 mm 5 mps 764 mmHg 83%
14:00 +13°C° 0 mm 5 mps 764 mmHg 81%
15:00 +12°C° 0 mm 5 mps 764 mmHg 79%
16:00 +10°C° 0 mm 5 mps 765 mmHg 78%
17:00 +8°C° 0 mm 5 mps 765 mmHg 83%
18:00 +7°C° 0 mm 5 mps 766 mmHg 88%
19:00 +5°C° 0 mm 4 mps 767 mmHg 93%
20:00 +5°C° 0 mm 4 mps 767 mmHg 91%
21:00 +5°C° 0 mm 4 mps 767 mmHg 89%
22:00 +5°C° 0 mm 4 mps 768 mmHg 87%
23:00 +4°C° 0 mm 3 mps 768 mmHg 88%

10 Agosto, Lunes

Tiempo Temperatura Precipitaciones Viento Presión Humedad
00:00 +4°C° 0 mm 3 mps 768 mmHg 89%
01:00 +3°C° 0 mm 3 mps 768 mmHg 90%
02:00 +3°C° 0 mm 3 mps 768 mmHg 90%
03:00 +4°C° 0 mm 2 mps 768 mmHg 90%
04:00 +4°C° 0 mm 2 mps 768 mmHg 91%
05:00 +4°C° 0 mm 2 mps 768 mmHg 90%
06:00 +5°C° 0 mm 1 mps 768 mmHg 89%
07:00 +5°C° 0 mm 1 mps 769 mmHg 89%
08:00 +6°C° 0 mm 2 mps 769 mmHg 80%
09:00 +8°C° 0 mm 3 mps 769 mmHg 72%
10:00 +10°C° 0 mm 4 mps 770 mmHg 63%
11:00 +10°C° 0 mm 4 mps 769 mmHg 61%
12:00 +10°C° 0 mm 4 mps 769 mmHg 60%
13:00 +11°C° 0 mm 4 mps 769 mmHg 58%
14:00 +10°C° 0 mm 4 mps 769 mmHg 60%
15:00 +10°C° 0 mm 4 mps 768 mmHg 62%
16:00 +8°C° 0 mm 5 mps 768 mmHg 64%
17:00 +7°C° 0 mm 4 mps 768 mmHg 70%
18:00 +5°C° 0 mm 4 mps 769 mmHg 76%
19:00 +4°C° 0 mm 3 mps 769 mmHg 83%
20:00 +3°C° 0 mm 3 mps 769 mmHg 83%
21:00 +3°C° 0 mm 3 mps 768 mmHg 83%
22:00 +3°C° 0 mm 3 mps 768 mmHg 84%
23:00 +3°C° 0 mm 3 mps 768 mmHg 82%

11 Agosto, Martes

Tiempo Temperatura Precipitaciones Viento Presión Humedad
00:00 +2°C° 0 mm 3 mps 768 mmHg 81%
01:00 +2°C° 0 mm 3 mps 767 mmHg 80%
02:00 +1°C° 0 mm 4 mps 766 mmHg 81%
03:00 +1°C° 0 mm 4 mps 766 mmHg 82%
04:00 +1°C° 0 mm 4 mps 765 mmHg 82%
05:00 0°C° 0 mm 4 mps 765 mmHg 84%
06:00 0°C° 0 mm 4 mps 765 mmHg 85%
07:00 +1°C° 0 mm 3 mps 764 mmHg 86%
08:00 +4°C° 0 mm 4 mps 764 mmHg 75%
09:00 +7°C° 0 mm 4 mps 764 mmHg 65%
10:00 +10°C° 0 mm 4 mps 763 mmHg 54%
11:00 +11°C° 0 mm 4 mps 763 mmHg 52%
12:00 +12°C° 0 mm 4 mps 762 mmHg 50%
13:00 +13°C° 0 mm 5 mps 761 mmHg 49%
14:00 +12°C° 0 mm 5 mps 761 mmHg 54%
15:00 +12°C° 0 mm 5 mps 761 mmHg 60%
16:00 +10°C° 0 mm 5 mps 761 mmHg 65%
17:00 +8°C° 0 mm 5 mps 761 mmHg 71%
18:00 +7°C° 0 mm 4 mps 761 mmHg 78%
19:00 +5°C° 0 mm 3 mps 761 mmHg 84%
20:00 +5°C° 0 mm 3 mps 761 mmHg 86%
21:00 +4°C° 0 mm 3 mps 761 mmHg 88%
22:00 +4°C° 0 mm 2 mps 761 mmHg 90%
23:00 +4°C° 0 mm 2 mps 761 mmHg 90%

12 Agosto, Miércoles

Tiempo Temperatura Precipitaciones Viento Presión Humedad
00:00 +5°C° 0 mm 1 mps 761 mmHg 89%
01:00 +5°C° 0 mm 1 mps 761 mmHg 88%
02:00 +5°C° 0 mm 1 mps 760 mmHg 88%
03:00 +5°C° 0 mm 1 mps 760 mmHg 88%
04:00 +6°C° 0 mm 1 mps 759 mmHg 88%
05:00 +6°C° 0 mm 1 mps 759 mmHg 89%
06:00 +6°C° 0 mm 1 mps 759 mmHg 89%
07:00 +6°C° 0 mm 1 mps 759 mmHg 90%
08:00 +7°C° 0.2 mm 2 mps 759 mmHg 88%
09:00 +8°C° 0.2 mm 2 mps 759 mmHg 86%
10:00 +9°C° 0.2 mm 3 mps 759 mmHg 85%
11:00 +8°C° 0.2 mm 4 mps 758 mmHg 81%
12:00 +10°C° 0.2 mm 4 mps 758 mmHg 77%
13:00 +10°C° 0.2 mm 5 mps 757 mmHg 73%
14:00 +9°C° 0.6 mm 5 mps 757 mmHg 79%
15:00 +8°C° 0.6 mm 5 mps 757 mmHg 85%
16:00 +7°C° 0.6 mm 5 mps 757 mmHg 91%
17:00 +6°C° 0.5 mm 4 mps 758 mmHg 93%
18:00 +5°C° 0.5 mm 3 mps 758 mmHg 94%
19:00 +5°C° 0.5 mm 2 mps 758 mmHg 96%
20:00 +5°C° 0 mm 2 mps 759 mmHg 95%
21:00 +4°C° 0 mm 3 mps 759 mmHg 95%
22:00 +3°C° 0 mm 3 mps 760 mmHg 95%
23:00 +3°C° 0 mm 3 mps 760 mmHg 95%
Mostrar más